Regional Weather Roundup
Issued by NWS

Home | Current Version | Previous Version | Text Only | Print | Product List | Glossary On
Versions: 1 2 3 4 5 6 7 8 9 10 11 12 13 14 15 16 17 18 19 20 21 22 23 24 25 26 27
000
ASUS44 KLIX 240013
RWRLA
LOUISIANA WEATHER ROUNDUP
NATIONAL WEATHER SERVICE NEW ORLEANS LA
700 PM CDT MON OCT 23 2017

NOTE: "FAIR" INDICATES FEW OR NO CLOUDS BELOW 12,000 FEET WITH NO
      SIGNIFICANT WEATHER AND/OR OBSTRUCTIONS TO VISIBILITY.
      SKY/WX - SKY CONDITION AND SIGNIFICANT WEATHER.
      TMP - AIR TEMPERATURE.    DP   - DEWPOINT TEMPERATURE.
      RH  - RELATIVE HUMIDITY.  PRES - PRESSURE.
      HX  - HEAT INDEX.         WCI  - WIND CHILL INDEX.

*  THESE STATIONS ARE NOT NWS OR FAA STATIONS AND ARE NOT UNDER
   NWS QUALITY CONTROL.

LAZ040-048-061>063-065-066-069-240100-
SOUTHEAST LOUISIANA

CITY           SKY/WX    TMP DP  RH WIND       PRES   REMARKS
N.O. INTL ARPT CLEAR     69  49  48 N8        30.01R
6HR MIN TEMP:  69; 6HR MAX TEMP:  75;

N.O. LAKEFRONT CLEAR     71  48  43 N18       30.02R
6HR MIN TEMP:  70; 6HR MAX TEMP:  75;

N.O. DOWNTOWN* FAIR      71  46  40 N5        30.02R
6HR MIN TEMP:  69; 6HR MAX TEMP:  75;

RESERVE*       FAIR      66  47  51 CALM      30.02S
6HR MIN TEMP:  66; 6HR MAX TEMP:  76;

SLIDELL        CLEAR     62  53  72 CALM      30.01R
6HR MIN TEMP:  62; 6HR MAX TEMP:  76;

BATON ROUGE    CLEAR     63  48  58 CALM      30.03R
6HR MIN TEMP:  63; 6HR MAX TEMP:  74;

BOOTHVILLE     CLEAR     75  49  39 N8        30.01R
6HR MIN TEMP:  73; 6HR MAX TEMP:  76;

BELLE CHASSE   PTCLDY    70  48  45 N9        30.01R
BOGALUSA*      FAIR      60  53  77 CALM      30.03S
6HR MIN TEMP:  60; 6HR MAX TEMP:  75;

GALLIANO*      CLEAR     62  53  73 CALM      30.02R
6HR MIN TEMP:  62; 6HR MAX TEMP:  74;

NEW ROADS*     FAIR      63  52  68 CALM      30.04R
6HR MIN TEMP:  63; 6HR MAX TEMP:  72;

GONZALES*      FAIR      61  51  69 CALM      30.02S
6HR MIN TEMP:  61; 6HR MAX TEMP:  74;

HAMMOND*       CLEAR     59  50  72 CALM      30.02S
HOUMA*         CLEAR     64  45  48 NW3       30.02R
PORT FOURCHON* CLEAR     70  50  49 N8        30.03R

$$

LAZ041-044-053-054-240100-
SOUTHWEST LOUISIANA

CITY           SKY/WX    TMP DP  RH WIND       PRES   REMARKS
LAKE CHARLES   CLEAR     63  52  67 CALM      30.04R
6HR MIN TEMP:  63; 6HR MAX TEMP:  78;

LAFAYETTE      CLEAR     64  54  69 CALM      30.03S
6HR MIN TEMP:  64; 6HR MAX TEMP:  76;

PATTERSON      NOT AVBL
SALT POINT       N/A     64  51  62 CALM      30.02S
6HR MIN TEMP:  64; 6HR MAX TEMP:  74;

NEW IBERIA     CLEAR     63  48  58 CALM      30.04S
6HR MIN TEMP:  63; 6HR MAX TEMP:  74;

CHENAULT AIRPK CLEAR     66  48  52 CALM      30.05R

$$

LAZ027-028-240100-
CENTRAL LOUISIANA

CITY           SKY/WX    TMP DP  RH WIND       PRES   REMARKS
FORT POLK      CLEAR     65  53  66 CALM      30.03S
6HR MIN TEMP:  65; 6HR MAX TEMP:  77;

ALEXANDRIA INT CLEAR     63  50  62 CALM      30.02R
6HR MIN TEMP:  63; 6HR MAX TEMP:  76;

ALEXANDRIA     CLEAR     58  53  84 CALM      30.03R
6HR MIN TEMP:  58; 6HR MAX TEMP:  77;


$$

LAZ001-002-240100-
NORTHWEST LOUISIANA

CITY           SKY/WX    TMP DP  RH WIND       PRES   REMARKS
SHREVEPORT     PTCLDY    67  48  50 W5        30.01R
6HR MIN TEMP:  67; 6HR MAX TEMP:  79;

BARKSDALE AFB  CLEAR     72  41  33 CALM      30.01R
6HR MIN TEMP:  72; 6HR MAX TEMP:  79;

DTN SHREVEPORT CLEAR     69  48  47 CALM      30.01R
6HR MIN TEMP:  69; 6HR MAX TEMP:  79;


$$

LAZ014-016-240100-
NORTHEAST LOUISIANA

CITY           SKY/WX    TMP DP  RH WIND       PRES   REMARKS
MONROE         CLOUDY    65  48  54 SW5       30.01S
6HR MIN TEMP:  65; 6HR MAX TEMP:  75;

TALLULAH       CLEAR     56  51  84 CALM      30.01R
6HR MIN TEMP:  56; 6HR MAX TEMP:  74;


$$





USA.gov is the U.S. government's official web portal to all federal, state and local government web resources and services.